Location: Dallas
(32.7833°N, 96.8000°W)
Time: 05:20:57
(UTC-06:00)

N. Korean satellite - Visible Passes

Search period start: 03 December 2022 00:00
Search period end: 13 December 2022 00:00
Orbit: 421 x 453 km, 97.3° (Epoch: 02 December)

Date Brightness Start Highest point End Pass type
(mag) Time Alt. Az. Time Alt. Az. Time Alt. Az.
03 Dec 6.6 05:58:32 10° N 06:01:49 46° WNW 06:05:02 10° SSW visible
03 Dec 9.7 17:57:07 10° SW 17:59:01 14° W 18:00:57 10° WNW visible
04 Dec 7.8 05:19:48 10° NNE 05:22:59 38° E 05:26:07 10° SSE visible
05 Dec 10.0 04:43:18 10° E 04:43:56 10° E 04:44:33 10° ESE visible
05 Dec 7.2 06:13:32 10° NNW 06:16:28 28° WNW 06:19:22 10° SW visible
06 Dec 6.6 05:34:18 10° NNE 05:37:39 67° E 05:40:58 10° S visible
07 Dec 9.4 04:56:21 10° NE 04:58:36 17° E 05:00:49 10° SE visible
07 Dec 7.8 06:28:38 10° NNW 06:30:57 18° WNW 06:33:15 10° WSW visible
08 Dec 6.2 05:48:48 10° N 05:52:09 69° WNW 05:55:26 10° SSW visible
08 Dec 9.5 17:46:40 10° SW 17:49:12 20° W 17:51:47 10° NW visible
09 Dec 8.5 05:10:13 10° NE 05:13:06 26° E 05:15:57 10° SSE visible
09 Dec 8.3 06:44:12 10° NW 06:45:16 11° WNW 06:46:20 10° W visible
10 Dec 6.7 06:03:19 10° N 06:06:28 39° WNW 06:09:35 10° SW visible
10 Dec 9.9 18:02:04 10° WSW 18:03:38 13° W 18:05:12 10° WNW visible
11 Dec 7.5 05:24:14 10° NNE 05:27:26 44° E 05:30:36 10° S visible
12 Dec 9.8 04:46:57 10° ENE 04:48:10 12° E 04:49:22 10° ESE visible
12 Dec 7.4 06:17:53 10° NNW 06:20:38 24° WNW 06:23:21 10° SW visible
